Location: Bergfeld
(52.0500°N, 11.7833°E)
Time: 06:00:41
(UTC+00:00)

CZ-4B DEB - Pass Details

Date: 17 February 2020
Orbit: 840 x 862 km, 99.1° (Epoch: 27 March)

Event Time Altitude Azimuth Distance (km) Brightness Sun altitude
Rises 04:53:06 0° 16° (NNE) 3,431 7.6 -14.8°
Reaches altitude 10° 04:55:30 10° 17° (NNE) 2,487 6.8 -14.4°
Maximum altitude 05:01:02 86° 106° (ESE) 855 4.2 -13.5°
Drops below altitude 10° 05:06:30 10° 196° (SSW) 2,457 6.5 -12.7°
Sets 05:08:50 0° 197° (SSW) 3,386 7.2 -12.3°
